This demonstration page uses our WeatherBlox Daily Observations layout. Learn more.

41.55636, -103.73856

Hourly Observations for July 10, 2016

Temp ( °F °C ) Dew Point ( °F °C ) Humidity (%) Winds ( mph kmh ) Pressure ( in mb ) Visibility ( mi km ) Precip ( " mm )
12:53 am 00:53 Clear 79 26.1 46 7.8 31 31 SW 9 15 29.69 1005 10 16.0934 0 0
1:53 am 01:53 Clear 81 27.2 55 12.8 41 41 SSW 10 17 29.66 1005 10 16.0934 0 0
2:53 am 02:53 Clear 79 26.1 56 13.3 45 45 S 12 19 29.65 1004 10 16.0934 0 0
3:53 am 03:53 Clear 77 25 56 13.3 48 48 SSW 10 17 29.63 1003 10 16.0934 0 0
4:53 am 04:53 Clear 70 21.1 56 13.3 61 61 E 7 11 29.64 1004 10 16.0934 0 0
5:53 am 05:53 Sunny 66 18.9 58 14.4 75 75 Calm 29.65 1004 10 16.0934 0 0
6:53 am 06:53 Sunny 69 20.6 60 15.6 73 73 NNW 3 6 29.66 1004 10 16.0934 0 0
7:53 am 07:53 Sunny 77 25 58 14.4 52 52 Calm 29.65 1004 10 16.0934 0 0
8:53 am 08:53 Sunny 83 28.3 57 13.9 41 41 Calm 29.65 1004 10 16.0934 0 0
9:53 am 09:53 Sunny 87 30.6 49 9.4 27 27 NNW 5 7 29.62 1003 10 16.0934 0 0
10:53 am 10:53 Sunny 91 32.8 40 4.4 17 17 NNW 5 7 29.61 1003 10 16.0934 0 0
11:53 am 11:53 Sunny 94 34.4 51 10.6 23 23 VRB 5 7 29.57 1001 10 16.0934 0 0
12:53 pm 12:53 Sunny 98 36.7 47 8.3 17 17 E 6 9 29.53 1000 10 16.0934 0 0
1:53 pm 13:53 Sunny 100 37.8 42 5.6 14 14 VRB 5 7 29.51 999 10 16.0934 0 0
2:53 pm 14:53 Sunny 101 38.3 40 4.4 12 12 ESE 8 13 29.48 998 10 16.0934 0 0
3:53 pm 15:53 Sunny 103 39.4 41 5 12 12 SSE 10 17 29.47 998 10 16.0934 0 0
4:53 pm 16:53 Sunny 100 37.8 51 10.6 19 19 ESE 8 13 29.45 997 10 16.0934 0 0
5:53 pm 17:53 Sunny 94 34.4 54 12.2 26 26 SE 16 26 29.45 997 10 16.0934 0 0
6:53 pm 18:53 Mostly Sunny 92 33.3 51 10.6 25 25 N 12 19 29.43 997 10 16.0934 0 0
7:53 pm 19:53 Sunny 83 28.3 62 16.7 49 49 NE 6 9 29.42 996 10 16.0934 0 0
8:53 pm 20:53 Clear 77 25 60 15.6 56 56 E 6 9 29.42 996 10 16.0934 0 0
9:53 pm 21:53 Clear 78 25.6 55 12.8 45 45 VRB 3 6 29.43 997 10 16.0934 0 0
10:53 pm 22:53 Clear 77 25 54 12.2 45 45 NNE 7 11 29.42 996 10 16.0934 0 0
11:53 pm 23:53 Clear 74 23.3 54 12.2 50 50 W 5 7 29.42 996 10 16.0934 0 0

Powered by AerisWeather